TimeCDT,TemperatureF,Dew PointF,Humidity,Sea Level PressureIn,VisibilityMPH,Wind Direction,Wind SpeedMPH,Gust SpeedMPH,PrecipitationIn,Events,Conditions,WindDirDegrees,DateUTC
12:53 AM,64.9,52.0,63,29.86,10.0,South,19.6,-,N/A,,Clear,170,2012-10-04 05:53:00
1:53 AM,63.0,52.0,67,29.88,10.0,South,15.0,-,N/A,,Clear,170,2012-10-04 06:53:00
2:53 AM,62.1,52.0,70,29.90,10.0,SSE,8.1,-,N/A,,Clear,150,2012-10-04 07:53:00
3:53 AM,62.1,53.1,72,30.01,10.0,NNW,11.5,-,N/A,,Clear,330,2012-10-04 08:53:00
4:53 AM,57.9,53.1,84,29.99,10.0,ESE,4.6,-,N/A,,Clear,110,2012-10-04 09:53:00
5:53 AM,55.0,41.0,59,30.08,10.0,North,20.7,32.2,N/A,,Clear,10,2012-10-04 10:53:00
6:53 AM,52.0,39.0,61,30.14,10.0,North,23.0,31.1,N/A,,Clear,10,2012-10-04 11:53:00
7:53 AM,51.1,39.0,63,30.18,10.0,North,23.0,31.1,N/A,,Overcast,360,2012-10-04 12:53:00
8:53 AM,52.0,37.9,59,30.22,10.0,North,17.3,28.8,N/A,,Overcast,10,2012-10-04 13:53:00
9:53 AM,53.1,37.9,57,30.23,10.0,North,18.4,24.2,N/A,,Overcast,10,2012-10-04 14:53:00
10:53 AM,53.1,36.0,52,30.25,10.0,North,16.1,27.6,N/A,,Overcast,10,2012-10-04 15:53:00
11:53 AM,55.0,36.0,49,30.25,10.0,North,19.6,26.5,N/A,,Overcast,10,2012-10-04 16:53:00
12:53 PM,59.0,37.0,44,30.23,10.0,NNE,16.1,25.3,N/A,,Partly Cloudy,30,2012-10-04 17:53:00
1:53 PM,61.0,37.9,42,30.21,10.0,NNE,13.8,21.9,N/A,,Clear,20,2012-10-04 18:53:00
2:53 PM,62.1,37.9,41,30.19,10.0,NNE,16.1,23.0,N/A,,Mostly Cloudy,20,2012-10-04 19:53:00
3:53 PM,63.0,37.9,40,30.17,10.0,NE,15.0,-,N/A,,Overcast,40,2012-10-04 20:53:00
4:53 PM,62.6,37.4,39,30.20,10.0,NE,8.1,-,N/A,,Overcast,50,2012-10-04 21:53:00
5:53 PM,61.0,37.9,42,30.16,10.0,NE,10.4,-,N/A,,Overcast,40,2012-10-04 22:53:00
6:53 PM,60.1,37.9,44,30.17,10.0,NE,9.2,-,N/A,,Overcast,50,2012-10-04 23:53:00
7:53 PM,59.0,37.9,46,30.17,10.0,East,6.9,-,N/A,,Overcast,80,2012-10-05 00:53:00
8:53 PM,57.9,37.9,47,30.19,10.0,East,3.5,-,N/A,,Overcast,80,2012-10-05 01:53:00
9:53 PM,57.0,37.0,47,30.20,10.0,East,6.9,-,N/A,,Overcast,90,2012-10-05 02:53:00
10:53 PM,55.9,37.0,49,30.20,10.0,ENE,8.1,-,N/A,,Overcast,70,2012-10-05 03:53:00
11:53 PM,55.0,37.0,51,30.22,10.0,ENE,9.2,-,N/A,,Overcast,60,2012-10-05 04:53:00